Date String (YYYY-MM-DD hh:mm:ss) UTC,Instrument flags,Ambient pressure (hPa),Sample flow (lpm),Bypass flow (lpm),Sample temperature (°C),Ambient temperature (°C),ASC tube jacket temperature (°C),LED temperature (°C),Box temperature (°C),Sample RH (%),Span deviation,Mass concentration (μg/m³),Mass concentration (μg/m³),Mass concentration (μg/m³)
DateTimeUTC,F1_M11,P_M11,Q1_M11,Q2_M11,T1_M11,T2_M11,T3_M11,T4_M11,T5_M11,U1_M11,ZSPAN_M11,X0_M11,X2_M11,X1_M11
2023-03-10 23:00:00,,0814.1,5.00,0.00,23.6,22.2,00.0,32.3,25.4,17.5,-001.7,0019.21,0009.62,0008.47
2023-03-10 23:01:00,,0814.1,5.01,0.00,23.6,22.2,00.0,32.3,25.5,17.5,-001.7,0018.61,0009.32,0008.19
2023-03-10 23:02:00,,0813.5,5.01,0.00,23.6,22.2,00.0,32.3,25.4,17.5,-001.9,0017.62,0008.97,0007.90
2023-03-10 23:03:00,,0813.5,5.01,0.00,23.6,22.3,00.0,32.3,25.4,17.5,-001.9,0016.60,0008.54,0007.55
2023-03-10 23:04:00,,0813.5,5.01,0.00,23.6,22.3,00.0,32.3,25.4,17.6,-000.9,0016.31,0008.28,0007.35
2023-03-10 23:05:00,,0813.5,4.99,0.00,23.6,22.3,00.0,32.3,25.5,17.5,-000.8,0015.88,0008.10,0007.19
2023-03-10 23:06:00,,0813.5,4.99,0.00,23.6,22.3,00.0,32.3,25.5,17.6,-001.6,0015.44,0008.01,0007.08
2023-03-10 23:07:00,,0813.5,5.00,0.00,23.6,22.4,00.0,32.3,25.5,17.8,-001.9,0015.56,0008.17,0007.26
2023-03-10 23:08:00,,0813.4,5.00,0.00,23.6,22.4,00.0,32.3,25.5,17.8,-002.3,0015.17,0008.22,0007.34
2023-03-10 23:09:00,,0813.4,4.99,0.00,23.6,22.4,00.0,32.3,25.5,17.9,-002.6,0017.17,0008.51,0007.59
2023-03-10 23:10:00,,0813.4,5.02,0.00,23.6,22.4,00.0,32.3,25.5,17.7,-002.9,0018.01,0008.56,0007.68
2023-03-10 23:11:00,,0813.4,4.98,0.00,23.7,22.4,00.0,32.4,25.5,17.6,-002.6,0017.91,0008.42,0007.56
2023-03-10 23:12:00,,0813.4,4.96,0.00,23.7,22.4,00.0,32.4,25.5,17.8,-002.4,0018.04,0008.37,0007.52
2023-03-10 23:13:00,,0813.3,5.00,0.00,23.7,22.4,00.0,32.4,25.5,17.8,-001.6,0018.60,0008.52,0007.62
2023-03-10 23:14:00,,0813.2,4.99,0.00,23.7,22.4,00.0,32.4,25.5,17.9,-001.5,0019.28,0008.92,0007.88
2023-03-10 23:15:00,,0813.1,5.01,0.00,23.7,22.4,00.0,32.4,25.5,17.9,-001.7,0021.48,0009.41,0008.25
2023-03-10 23:16:00,,0813.1,4.99,0.00,23.7,22.4,00.0,32.4,25.5,17.9,-002.0,0024.42,0009.98,0008.74
2023-03-10 23:17:00,,0813.1,5.01,0.00,23.7,22.3,00.0,32.4,25.5,17.9,-002.0,0026.28,0010.47,0009.15
2023-03-10 23:18:00,,0813.1,5.00,0.00,23.7,22.3,00.0,32.4,25.5,17.9,-002.2,0026.22,0010.65,0009.27
2023-03-10 23:19:00,,0813.1,5.01,0.00,23.7,22.4,00.0,32.4,25.5,17.7,-002.3,0027.15,0010.93,0009.42
2023-03-10 23:20:00,,0813.1,5.00,0.00,23.7,22.4,00.0,32.4,25.5,17.5,-002.2,0025.61,0010.64,0009.17
2023-03-10 23:21:00,,0813.2,5.00,0.00,23.7,22.4,00.0,32.4,25.6,17.7,-001.5,0025.57,0010.70,0009.21
2023-03-10 23:22:00,,0813.1,5.01,0.00,23.7,22.4,00.0,32.4,25.5,17.6,-002.1,0025.86,0010.95,0009.40
2023-03-10 23:23:00,,0813.1,4.99,0.00,23.7,22.4,00.0,32.4,25.5,17.6,-002.2,0026.16,0011.07,0009.50
2023-03-10 23:24:00,,0813.1,4.99,0.00,23.7,22.4,00.0,32.4,25.6,17.8,-002.3,0026.09,0011.12,0009.58
2023-03-10 23:25:00,,0813.1,5.00,0.00,23.7,22.4,00.0,32.4,25.5,17.8,-002.1,0027.48,0011.24,0009.69
2023-03-10 23:26:00,,0813.1,5.00,0.00,23.7,22.4,00.0,32.5,25.5,17.8,-002.3,0027.07,0011.26,0009.69
2023-03-10 23:27:00,,0813.4,5.00,0.00,23.8,22.4,00.0,32.5,25.6,17.7,-002.2,0025.18,0011.19,0009.63
2023-03-10 23:28:00,,0813.2,5.01,0.00,23.8,22.4,00.0,32.5,25.6,17.6,-002.3,0024.10,0010.98,0009.42
2023-03-10 23:29:00,,0813.0,5.01,0.00,23.8,22.4,00.0,32.5,25.6,17.5,-002.1,0023.64,0010.63,0009.10
2023-03-10 23:30:00,,0813.1,5.00,0.00,23.8,22.4,00.0,32.5,25.6,17.7,-002.0,0022.72,0010.39,0008.95
2023-03-10 23:31:00,,0813.1,4.99,0.00,23.8,22.5,00.0,32.5,25.6,17.8,-001.9,0022.75,0010.67,0009.20
2023-03-10 23:32:00,,0813.0,4.99,0.00,23.8,22.4,00.0,32.5,25.6,17.8,-002.1,0023.70,0010.80,0009.30
2023-03-10 23:33:00,,0813.2,5.00,0.00,23.8,22.4,00.0,32.5,25.6,17.7,-002.1,0025.43,0010.95,0009.43
2023-03-10 23:34:00,,0813.0,5.00,0.00,23.8,22.4,00.0,32.5,25.6,17.8,-002.4,0026.00,0011.25,0009.66
2023-03-10 23:35:00,,0813.1,5.00,0.00,23.8,22.4,00.0,32.5,25.6,17.9,-002.5,0026.54,0011.47,0009.80
2023-03-10 23:36:00,,0813.1,5.00,0.00,23.8,22.4,00.0,32.5,25.6,17.9,-002.6,0025.63,0011.42,0009.75
2023-03-10 23:37:00,,0813.2,5.01,0.00,23.8,22.4,00.0,32.5,25.6,17.9,-002.8,0024.66,0011.39,0009.72
2023-03-10 23:38:00,,0813.2,5.00,0.00,23.8,22.5,00.0,32.5,25.6,17.9,-002.7,0024.75,0011.37,0009.73
2023-03-10 23:39:00,,0813.2,5.01,0.00,23.8,22.5,00.0,32.5,25.6,17.8,-002.5,0024.03,0011.34,0009.76
2023-03-10 23:40:00,,0813.2,5.01,0.00,23.8,22.5,00.0,32.5,25.6,17.8,-002.4,0024.75,0011.47,0009.91
2023-03-10 23:41:00,,0813.2,5.00,0.00,23.8,22.5,00.0,32.5,25.6,17.7,-002.3,0024.95,0011.56,0009.96
2023-03-10 23:42:00,,0813.2,5.00,0.00,23.8,22.5,00.0,32.5,25.6,17.5,-002.8,0024.36,0011.25,0009.70
2023-03-10 23:43:00,,0813.1,5.00,0.00,23.8,22.6,00.0,32.5,25.6,17.7,-003.0,0023.85,0011.05,0009.50
2023-03-10 23:44:00,,0813.2,5.00,0.00,23.8,22.5,00.0,32.5,25.6,17.5,-002.7,0022.59,0010.86,0009.37
2023-03-10 23:45:00,,0813.1,4.99,0.00,23.8,22.5,00.0,32.5,25.6,17.2,-001.9,0021.20,0010.28,0008.93
2023-03-10 23:46:00,,0813.1,5.01,0.00,23.8,22.4,00.0,32.5,25.6,17.4,-001.3,0020.30,0009.85,0008.60
2023-03-10 23:47:00,,0813.2,5.02,0.00,23.8,22.4,00.0,32.5,25.6,17.7,-000.9,0020.26,0009.85,0008.62
2023-03-10 23:48:00,,0813.2,5.01,0.00,23.8,22.4,00.0,32.5,25.7,17.8,-000.1,0020.30,0009.92,0008.68
2023-03-10 23:49:00,,0813.0,5.00,0.00,23.8,22.4,00.0,32.6,25.6,17.8,-000.1,0020.34,0010.04,0008.75
2023-03-10 23:50:00,,0813.2,5.00,0.00,23.8,22.4,00.0,32.6,25.6,17.8,-000.9,0023.12,0010.30,0008.91
2023-03-10 23:51:00,,0813.1,5.00,0.00,23.8,22.4,00.0,32.6,25.6,17.9,-001.3,0024.39,0010.54,0009.11
2023-03-10 23:52:00,,0813.1,5.00,0.00,23.8,22.4,00.0,32.6,25.6,17.8,-001.6,0024.20,0010.73,0009.28
2023-03-10 23:53:00,,0813.1,5.00,0.00,23.8,22.4,00.0,32.6,25.7,17.9,-001.1,0025.12,0011.10,0009.60
2023-03-10 23:54:00,,0813.1,4.99,0.00,23.8,22.4,00.0,32.6,25.7,17.9,-000.7,0025.02,0011.47,0009.90
2023-03-10 23:55:00,,0813.1,4.99,0.00,23.9,22.5,00.0,32.6,25.7,17.9,-000.9,0025.20,0011.83,0010.20
2023-03-10 23:56:00,,0813.0,5.01,0.00,23.9,22.5,00.0,32.6,25.6,17.9,-001.4,0026.46,0012.46,0010.70
2023-03-10 23:57:00,,0813.1,5.00,0.00,23.9,22.5,00.0,32.6,25.7,17.9,-001.7,0027.56,0012.96,0011.13
2023-03-10 23:58:00,,0813.1,5.00,0.00,23.9,22.5,00.0,32.6,25.7,17.9,-001.6,0027.81,0013.07,0011.22
2023-03-10 23:59:00,,0812.9,5.00,0.00,23.9,22.5,00.0,32.6,25.7,17.8,-001.5,0028.32,0013.06,0011.21
